Lewiston, ID

8:50 AM PDT on September 30, 2016 (GMT -0700)
Lewiston-Nez Perce County

Weather History for KLWS - June, 2014

Change the Weather History Date:

Wednesday, June 11, 2014

  Actual Average Record
Temperature  
Mean Temperature 68 °F 65 °F  
Max Temperature 83 °F 77 °F 101 °F (1934)
Min Temperature 53 °F 53 °F 38 °F (1919)
Degree Days  
Heating Degree Days 0 3  
Month to date heating degree days 0 38  
Since 1 June heating degree days 0 38  
Since 1 July heating degree days 5289 5135  
Cooling Degree Days 3 2  
Month to date cooling degree days 40 22  
Year to date cooling degree days 68 54  
Since 1 June cooling degree days 40 22  
Growing Degree Days 18 (Base 50)    
Moisture  
Dew Point 32 °F    
Average Humidity 30    
Maximum Humidity 47    
Minimum Humidity 13    
Precipitation  
Precipitation 0.00 in 0.05 in 1.72 in (1885)
Month to date precipitation 0.15 0.55  
Year to date precipitation 5.44 6.49  
Snow  
Snow 0.00 in 0.00 in 0.00 in (1995)
Month to date snowfall 0.0 0.0  
Since 1 June snowfall 0.0 0.0  
Since 1 July snowfall 16.5 10.5  
Snow Depth 0.00 in    
Sea Level Pressure  
Sea Level Pressure 29.90 in    
Wind  
Wind Speed 5 mph (ENE)    
Max Wind Speed 18 mph    
Max Gust Speed 29 mph    
Visibility 10 miles    
Events      
T = Trace of Precipitation, MM = Missing Value Source: NWS Daily Summary

Daily Weather History Graph

Daily Weather History Graph

Search for Another Location

Airport or City:

Trip Planner

Search our weather history database for the weather conditions in past years. The results will help you decide how hot, cold, wet, or windy it might be!

Date:

Astronomy

Jun. 11, 2014 Rise Set
Actual Time 4:55 AM PDT 8:40 PM PDT
Civil Twilight 4:16 AM PDT 9:19 PM PDT
Nautical Twilight 3:24 AM PDT 10:11 PM PDT
Astronomical Twilight 2:11 AM PDT 11:25 PM PDT
Moon 7:09 PM PDT (6/11) 3:55 AM PDT (6/11)
Length of Visible Light 17h 02m
Length of Day
15h 44m
Waxing Gibbous, 97% of the Moon is Illuminated
Jun 11
Waxing Gibbous
Jun 12
Full
Jun 19
Last Quarter
Jun 27
New
Jul 5
First Quarter

Hourly Weather History & Observations

Time (PDT) Temp. Dew Point Humidity Pressure Visibility Wind Dir Wind Speed Gust Speed Precip Events Conditions
12:56 AM 64.0 °F 33.1 °F 31% 29.91 in 10.0 mi North - - N/A   Mostly Cloudy
1:56 AM 62.6 °F 33.8 °F 34% 29.94 in 10.0 mi North - - N/A   Scattered Clouds
2:56 AM 59.0 °F 34.0 °F 39% 29.94 in 10.0 mi Calm Calm - N/A   Clear
3:56 AM 55.9 °F 34.0 °F 44% 29.95 in 10.0 mi Calm Calm - N/A   Clear
4:56 AM 55.0 °F 35.1 °F 47% 29.96 in 10.0 mi ESE 5.8 mph - N/A   Clear
5:56 AM 55.9 °F 36.0 °F 47% 29.99 in 10.0 mi ESE 4.6 mph - N/A   Clear
6:56 AM 59.0 °F 37.0 °F 44% 30.00 in 10.0 mi North 3.5 mph - N/A   Clear
7:56 AM 62.6 °F 35.6 °F 37% 30.03 in 10.0 mi Calm Calm - N/A   Clear
8:56 AM 64.9 °F 36.0 °F 34% 30.01 in 10.0 mi ENE 4.6 mph - N/A   Clear
9:56 AM 68.0 °F 36.0 °F 31% 30.00 in 10.0 mi NE 5.8 mph - N/A   Clear
10:56 AM 70.0 °F 34.0 °F 27% 29.99 in 10.0 mi Variable 3.5 mph - N/A   Clear
11:56 AM 73.0 °F 33.1 °F 23% 29.97 in 10.0 mi Calm Calm - N/A   Clear
12:56 PM 77.0 °F 32.0 °F 19% 29.96 in 10.0 mi North 8.1 mph 17.3 mph N/A   Clear
1:56 PM 78.8 °F 30.2 °F 17% 29.93 in 10.0 mi Variable 5.8 mph - N/A   Clear
2:56 PM 81.0 °F 30.9 °F 16% 29.89 in 10.0 mi NE 9.2 mph 17.3 mph N/A   Clear
3:56 PM 81.0 °F 30.0 °F 16% 29.86 in 10.0 mi East 8.1 mph - N/A   Clear
4:56 PM 82.0 °F 26.1 °F 13% 29.84 in 10.0 mi NE 8.1 mph - N/A   Clear
5:56 PM 82.0 °F 27.0 °F 13% 29.82 in 10.0 mi NE 11.5 mph - N/A   Clear
6:56 PM 80.1 °F 25.0 °F 13% 29.80 in 10.0 mi NE 8.1 mph - N/A   Clear
7:56 PM 78.1 °F 28.0 °F 16% 29.79 in 10.0 mi NE 5.8 mph - N/A   Clear
8:56 PM 71.6 °F 30.2 °F 22% 29.81 in 10.0 mi SE 3.5 mph - N/A   Clear
9:56 PM 66.9 °F 33.1 °F 28% 29.78 in 10.0 mi SSE 6.9 mph - N/A   Clear
10:56 PM 64.0 °F 33.1 °F 31% 29.78 in 10.0 mi North - - N/A   Clear
11:56 PM 64.9 °F 32.0 °F 29% 29.76 in 10.0 mi Calm Calm - N/A   Clear